Theta_e
296 295 296 298 298 299 298 300 296 298 298 303 310 311 315 319 320 320 321 322 322 323 325 325 325 324 324 326 328 328 327 330 333 334 334 334 334 334 334 335 334 333 332 330
292 296 296 295 298 299 299 300 300 300 299 307 309 310 311 316 319 320 321 321 323 324 325 325 324 323 324 325 327 328 327 329 332 333 333 333 334 334 334 333 333 333 333 332
289 296 295 292 297 299 300 301 301 297 302 308 308 308 312 317 319 320 322 322 323 324 326 326 324 324 325 325 327 327 326 329 331 332 332 332 333 333 334 334 335 333 332 332
291 294 286 299 304 303 301 302 302 302 305 307 308 312 313 315 320 322 324 323 324 325 327 327 326 325 326 326 326 325 325 327 331 330 331 332 333 334 334 336 334 331 328 330
289 290 295 298 301 301 300 300 305 305 307 309 311 313 313 317 318 324 326 327 327 328 329 329 326 326 325 325 324 324 324 326 330 330 331 331 331 335 336 334 325 328 329 327
292 287 286 298 302 305 305 298 305 306 306 308 309 303 310 319 322 324 327 329 328 329 330 329 327 326 326 324 323 323 324 325 331 331 331 330 330 334 336 336 333 330 328 324
288 291 295 301 303 305 295 297 306 307 308 309 308 312 317 319 321 326 327 329 330 330 329 329 327 327 325 324 323 324 326 326 329 332 331 333 332 335 336 334 334 332 329 329
287 289 289 303 303 299 301 307 308 309 310 310 313 314 317 319 321 324 325 328 329 329 329 329 328 326 324 324 326 325 326 326 327 332 331 332 333 333 335 335 333 332 331 330
291 290 297 304 302 306 306 306 307 308 310 312 313 315 318 319 322 324 324 327 329 329 329 329 328 326 324 326 326 325 325 326 327 331 331 333 332 330 331 334 331 331 330 329
293 295 295 298 303 305 306 306 308 310 310 312 313 316 318 320 323 324 325 326 329 329 328 328 328 327 326 327 326 325 325 326 327 328 330 331 330 328 327 329 329 326 326 328
294 296 297 299 300 302 303 305 306 310 311 312 314 317 320 321 322 324 325 325 328 328 328 328 328 327 328 327 326 325 326 327 327 327 329 330 329 327 324 328 323 325 325 325
291 297 295 296 300 302 303 302 304 308 309 312 315 317 321 324 326 325 325 324 326 329 329 328 328 327 328 328 326 326 326 326 326 324 327 327 329 328 298 305 305 303 305 315
296 301 301 302 303 303 301 303 305 307 310 310 313 316 320 323 326 323 327 323 325 327 329 329 327 327 329 329 327 326 329 329 326 320 324 324 326 328 325 314 302 299 299 301
302 302 300 303 301 303 303 306 306 309 311 311 312 315 317 322 325 326 325 324 325 327 329 329 327 326 329 330 329 327 330 310 326 324 323 323 324 326 327 325 323 322 301 306
299 301 302 303 304 304 305 305 305 306 309 310 312 312 313 316 323 325 326 325 326 326 327 328 327 327 329 329 329 329 328 325 326 325 324 320 324 323 323 323 323 323 324 305
299 301 302 301 302 304 305 305 305 305 308 310 311 312 312 316 320 326 327 326 324 324 326 327 327 329 330 329 330 330 329 313 317 325 323 323 323 322 322 322 322 322 322 323
298 297 300 301 302 303 304 305 306 307 308 309 310 312 313 314 318 322 326 328 327 326 327 328 328 330 329 329 332 329 329 327 313 325 324 323 322 322 322 321 321 321 322 321
301 302 303 303 301 304 305 306 307 307 308 310 310 312 313 313 315 317 324 329 328 327 328 329 329 330 330 329 329 329 329 328 324 324 325 324 322 322 322 322 322 322 322 320
302 302 305 306 306 306 307 307 308 309 309 310 310 311 313 313 314 317 322 328 328 327 329 330 308 317 330 324 322 329 328 327 325 325 325 315 322 323 322 322 322 322 323 322
302 302 303 304 306 307 307 309 311 310 309 310 310 310 311 314 314 315 318 324 326 328 330 331 329 327 328 323 306 328 328 327 325 324 324 325 324 324 324 312 322 322 323 322
304 304 304 303 303 306 306 307 308 310 310 310 309 309 309 313 315 314 316 316 325 323 323 314 329 329 327 322 319 325 327 327 326 325 325 324 325 325 325 325 324 323 323 323
304 303 302 303 304 305 306 306 306 308 310 310 310 310 310 311 314 315 317 316 320 293 318 328 331 303 319 295 326 325 326 327 327 326 325 325 325 325 325 326 326 326 325 326
305 304 305 303 303 305 305 303 303 303 304 309 311 311 311 311 313 312 312 317 319 305 319 322 303 291 290 321 326 325 326 326 327 326 326 326 326 325 325 326 326 326 327 327
305 305 304 307 306 306 302 303 304 306 305 304 306 310 313 313 314 316 318 306 295 302 314 315 308 291 287 326 329 327 327 327 327 327 327 310 327 324 326 327 327 327 327 323
305 305 305 305 305 305 307 306 304 304 304 304 305 306 309 313 314 316 317 318 296 305 320 299 293 289 316 324 326 330 331 330 330 329 328 327 325 325 326 327 328 328 328 327
305 304 305 304 304 307 306 306 304 303 300 299 299 301 304 308 313 314 317 307 317 307 317 317 322 324 325 325 328 330 330 330 328 327 326 329 327 326 325 325 326 325 326 327
303 299 304 304 304 303 305 304 302 300 299 299 298 299 299 303 309 310 305 316 316 316 317 317 317 316 325 325 330 331 332 331 319 328 328 326 327 327 325 325 327 327 326 325
Wind_Speed
13 8 7 13 25 22 26 19 16 14 18 14 11 8 7 9 15 17 18 20 19 18 17 16 15 14 13 12 11 9 8 7 6 6 6 6 6 7 7 7 7 8 9 8
16 14 8 8 13 26 23 22 21 11 13 13 14 11 6 6 15 18 18 19 20 19 18 17 16 15 13 12 11 10 8 8 7 7 7 7 7 7 8 8 8 8 9 8
17 16 7 11 12 18 21 20 21 19 15 3 2 5 7 2 14 18 18 20 21 20 18 16 16 15 14 13 12 11 9 8 8 8 8 8 8 8 9 8 7 7 8 8
13 12 12 10 2 13 17 20 20 16 15 11 6 9 13 6 12 13 16 18 19 18 18 17 16 16 15 14 13 12 10 9 9 8 9 8 8 9 8 8 7 6 4 8
8 12 8 9 9 4 9 8 7 9 10 12 12 12 14 8 4 14 12 14 16 18 18 17 17 17 16 15 14 13 11 11 10 9 9 8 8 9 9 9 6 6 7 8
6 15 14 10 8 5 4 9 8 6 5 6 7 10 2 12 12 7 11 12 16 19 18 18 18 18 17 16 15 14 13 12 11 10 10 8 8 8 8 8 10 8 9 8
6 8 9 12 10 4 12 7 9 7 8 7 8 10 16 12 10 11 9 13 15 18 19 19 19 19 17 16 16 14 13 12 12 11 10 9 8 7 9 8 10 10 9 9
4 7 7 16 2 5 9 7 9 9 10 11 12 12 15 12 9 7 6 14 18 17 18 19 20 19 18 17 16 15 14 14 13 12 10 9 9 8 8 9 9 10 10 9
5 4 8 4 10 10 9 9 11 12 13 14 14 12 12 11 10 7 7 12 16 16 18 18 20 20 19 17 17 16 16 14 13 13 11 11 10 9 8 9 8 9 8 9
3 5 8 5 10 11 13 12 14 12 13 14 15 15 13 10 8 7 9 12 15 18 20 20 20 20 18 18 18 17 16 16 13 13 12 12 9 9 8 8 8 8 8 8
1 6 7 2 13 15 16 14 16 14 14 14 15 15 13 11 9 8 9 12 16 18 19 21 20 20 19 20 19 17 16 15 14 12 12 12 10 9 9 8 6 7 7 8
3 5 2 9 15 16 14 16 17 16 16 15 14 16 14 11 9 8 9 12 15 18 18 20 21 21 21 21 21 19 17 14 13 12 12 11 11 8 9 7 7 6 5 1
8 14 14 13 12 6 16 17 15 17 15 15 15 15 17 13 11 9 10 13 16 20 21 20 22 22 21 22 22 21 17 15 13 13 13 12 12 11 11 3 6 2 1 2
16 13 14 7 13 14 14 16 15 17 13 13 15 15 17 16 13 10 9 13 14 16 18 19 21 23 22 22 22 21 19 16 14 14 13 13 12 12 11 11 11 10 6 7
11 14 14 15 15 14 12 13 15 14 14 14 14 15 17 17 15 11 9 9 11 14 17 19 20 21 22 22 22 22 18 15 15 13 13 13 12 12 12 12 12 12 12 7
14 17 15 13 14 13 12 11 13 13 14 15 14 16 16 16 15 13 9 7 9 12 15 18 20 21 22 22 21 18 18 17 16 13 13 13 12 12 12 12 11 11 12 12
12 11 13 12 13 13 13 12 11 13 14 14 15 17 16 15 14 13 12 7 7 8 11 13 15 17 19 21 21 16 15 15 15 13 13 13 13 13 12 12 12 12 12 12
10 11 11 12 12 13 13 11 12 12 12 15 14 15 14 14 14 14 13 9 4 4 5 7 11 14 17 19 19 16 16 15 17 16 14 14 14 13 13 13 13 13 12 11
11 12 11 10 11 11 12 13 12 13 12 13 12 13 14 13 13 13 13 10 7 3 6 5 9 6 14 16 16 14 15 16 16 16 16 14 13 14 14 14 14 14 13 13
9 11 12 12 13 13 12 11 13 11 11 11 12 12 13 12 13 12 12 9 7 7 7 5 5 8 11 12 13 14 14 16 15 15 15 16 15 16 15 14 15 15 14 14
18 10 12 13 13 12 13 14 14 14 11 10 12 12 11 13 13 11 9 7 7 10 10 4 5 4 8 8 12 15 14 14 14 14 15 15 15 14 15 15 15 14 14 14
15 15 13 14 13 13 13 13 13 14 13 10 11 12 11 11 11 10 8 7 7 6 8 8 5 8 6 5 11 15 14 13 13 12 13 13 13 12 12 12 13 13 14 14
12 14 14 12 12 14 15 13 14 14 16 17 13 11 11 9 8 8 8 4 6 7 9 8 6 5 5 7 10 13 12 13 12 11 11 10 10 9 7 7 10 12 12 13
12 12 11 13 13 12 15 13 13 14 14 13 12 16 14 9 9 7 7 7 3 4 7 8 6 4 5 7 7 9 9 10 11 12 13 13 11 11 10 13 12 12 13 11
11 11 11 12 12 10 13 14 10 13 17 16 17 15 16 12 11 10 8 7 4 5 7 3 5 1 5 7 11 11 10 11 12 12 12 11 11 10 9 8 11 10 10 12
10 9 8 10 10 10 9 11 11 11 12 12 12 13 13 12 12 11 10 10 11 8 9 7 5 5 7 8 12 11 11 12 10 11 13 12 10 8 8 8 8 6 7 8
7 5 9 9 9 9 9 9 11 11 11 11 11 12 12 13 11 12 11 12 10 9 9 8 7 6 8 5 9 10 9 10 9 11 12 10 10 8 6 5 8 7 6 7
Wind_Direction
246 305 307 268 206 198 205 215 227 190 221 241 170 80 60 156 166 164 161 166 162 165 165 160 165 168 170 164 161 158 162 158 136 139 142 139 122 124 128 139 142 130 122 126
239 240 241 238 243 205 204 206 227 216 229 241 269 285 259 192 182 174 169 169 166 167 166 166 168 172 168 164 161 159 161 152 149 144 154 136 134 134 133 131 139 140 134 125
226 212 210 223 210 217 204 208 219 221 233 186 209 238 266 125 195 182 174 170 170 172 170 168 170 173 169 164 162 163 165 147 156 147 153 148 144 136 129 128 135 130 123 118
235 165 213 86 28 206 211 208 222 230 233 249 259 357 326 297 185 202 180 173 173 173 169 169 170 172 167 164 167 168 168 157 156 162 149 146 144 133 134 132 124 124 83 127
241 195 130 110 39 335 205 133 0 307 295 332 326 318 275 294 278 204 193 181 180 171 167 166 172 169 168 166 172 173 169 163 164 156 154 150 144 144 141 120 124 134 138 140
264 212 207 43 357 332 266 162 21 348 330 324 320 253 146 10 357 311 189 187 178 171 167 168 172 170 170 170 177 179 172 168 167 159 152 152 141 144 152 140 118 129 138 133
262 235 100 9 343 186 215 71 352 341 337 321 288 321 324 323 321 317 214 183 181 177 171 170 169 171 177 174 181 179 172 168 167 163 159 144 143 147 155 157 120 127 123 142
243 259 147 360 23 329 23 357 353 345 341 324 311 305 301 305 296 293 225 187 183 181 175 170 170 175 180 179 179 177 173 173 168 165 174 155 152 152 158 148 145 136 139 137
3 35 331 312 58 49 11 356 350 342 341 327 318 315 311 300 290 268 255 198 183 185 178 176 174 180 181 177 179 177 174 175 171 171 179 162 163 162 160 169 159 159 162 140
275 32 340 33 20 14 359 350 335 340 334 329 328 322 314 305 289 258 233 209 190 186 183 182 180 183 184 174 180 176 176 175 175 178 178 173 175 174 171 178 171 173 162 152
341 48 347 261 345 341 339 343 337 337 338 338 331 330 323 311 293 270 248 200 204 195 190 185 183 182 182 176 178 178 179 178 178 183 186 178 195 182 184 186 183 179 165 161
4 19 272 299 308 323 325 337 330 334 332 342 336 338 332 317 304 279 257 207 208 201 193 187 184 185 182 179 178 178 181 181 182 183 179 187 191 175 56 27 120 58 29 131
303 308 309 293 307 324 329 321 324 320 324 338 344 339 347 333 315 311 265 234 204 206 199 188 187 185 185 182 179 181 185 181 182 195 179 188 192 191 188 130 61 67 9 290
305 304 302 317 321 320 316 316 321 315 326 334 344 345 347 343 336 317 254 238 209 214 205 194 189 191 185 185 184 185 188 174 188 196 185 189 191 194 198 190 194 190 210 215
334 317 300 299 299 302 320 317 317 322 331 334 343 350 348 344 342 338 309 258 211 208 212 198 194 195 186 187 187 188 187 181 195 191 191 194 188 194 200 200 195 196 184 177
306 303 303 301 298 305 318 323 317 319 323 329 338 343 345 339 343 349 344 294 214 208 212 206 200 196 187 186 186 189 192 186 190 187 190 194 197 196 197 201 200 204 197 190
299 303 312 313 315 311 310 314 313 311 316 317 330 333 337 344 347 355 355 350 304 219 217 215 210 206 192 187 185 188 186 181 191 193 196 192 199 201 201 199 200 203 207 200
322 307 283 287 299 306 307 307 305 308 310 315 319 325 332 341 346 351 351 347 356 242 264 230 211 212 194 193 192 193 187 183 187 198 193 194 200 201 206 207 207 206 206 192
355 350 348 319 312 307 306 307 305 302 304 305 310 320 323 324 339 347 348 350 19 103 62 302 0 275 202 197 190 213 191 190 187 198 197 193 192 203 205 210 211 212 212 206
11 3 360 352 348 341 327 318 312 298 298 299 303 306 316 322 328 333 344 344 28 23 329 14 284 214 218 193 178 218 199 201 192 202 200 194 198 203 206 209 211 213 212 217
6 5 356 20 352 342 355 354 338 314 304 297 296 296 306 313 312 317 325 333 9 20 340 281 314 201 207 200 182 223 209 201 202 203 205 205 198 205 210 212 210 221 215 214
3 15 13 354 355 356 6 1 347 337 316 304 296 293 293 302 304 304 301 310 333 26 343 340 330 36 345 291 203 211 220 199 209 203 206 199 208 200 212 219 232 215 227 224
360 8 6 7 355 357 13 10 5 1 352 337 317 304 297 297 301 296 299 318 324 18 327 323 21 34 330 254 227 212 202 201 210 206 188 188 186 197 224 233 245 243 235 225
2 3 360 355 357 7 17 12 355 352 349 342 332 322 308 291 285 271 276 268 248 292 318 311 321 359 327 276 242 227 199 197 198 193 192 192 188 183 194 190 208 247 249 239
355 3 15 0 357 354 357 353 358 350 352 348 340 332 312 290 276 279 279 275 205 251 292 272 257 222 255 258 263 247 218 208 203 206 213 219 218 236 183 204 220 185 231 246
342 358 2 25 1 352 357 2 4 1 348 342 337 334 324 303 288 276 266 265 264 268 270 280 252 234 248 246 266 250 246 243 218 218 228 221 212 194 184 206 230 214 209 234
340 10 348 16 4 353 354 11 18 2 349 341 333 340 336 327 297 291 284 275 267 255 252 261 266 225 260 250 265 255 248 241 225 237 224 228 214 207 188 208 222 210 217 220